[[{"header":{"parameterUnit":"m.s-1","parameterCategory":1,"la1":30.2991,"la2":30.254,"lo1":-89.0895,"lo2":-89.0444,"dy":0.0017,"dx":0.0017,"nx":28,"ny":28,"refTime":"2023-10-25T21:00:00:Z","depth":0,"parameterNumber":2,"parameterNumberName":"U-component_of_WINDS"},"data":[0,0,0,0,0,0,0,0,0,0,0,0,0,0,0,0,0,0,0,0,0,0,0,0,0,0,0,0,0,0,0,0,0,0,0,0,0,0,0,0,0,0,0,0,0,0,0,0,0,0,0,0,0,0,0,0,0,0,-5.8723,-5.8725,0,-5.8907,-5.8909,-5.8911,-5.8968,-5.8967,-5.8966,-5.8965,-5.9147,-5.9153,-5.9159,0,0,0,0,0,0,0,0,0,0,0,0,0,-5.8416,-5.8421,-5.8723,-5.8725,-5.8728,-5.8907,-5.8909,-5.8912,-5.8968,-5.8967,-5.8966,-5.8965,-5.9146,-5.9152,-5.9159,0,0,0,0,0,0,0,0,0,0,0,0,0,-5.8569,-5.8423,-5.8722,-5.8777,-5.8784,-5.8906,-5.891,-5.8913,-5.8968,-5.8967,-5.8966,-5.8964,-5.9143,-5.9152,-5.916,-5.9239,0,0,-5.9186,-5.919,0,0,0,0,0,0,0,0,-5.8561,-5.8581,-5.8767,-5.8774,-5.8782,-5.8913,-5.8868,-5.9022,-5.8969,-5.8898,-5.8965,-5.8964,-5.907,-5.9085,-5.9122,-5.9248,-5.9256,-5.9187,-5.9192,-5.9196,-5.9198,0,0,0,0,0,0,0,-5.855,-5.8573,-5.8796,-5.8769,-5.8778,-5.8792,-5.8812,-5.8898,-5.8989,-5.8904,-5.8909,-5.893,-5.9074,-5.9114,-5.9127,-5.9258,-5.9187,-5.9194,-5.9199,-5.9203,-5.9461,-5.9463,0,0,0,0,0,0,-5.8531,-5.8564,-5.879,-5.8801,-5.8666,-5.8798,-5.8821,-5.8872,-5.8988,-5.9005,-5.8931,-5.8932,-5.91,-5.9117,-5.9133,-5.9235,-5.9196,-5.9204,-5.9208,-5.9459,-5.9462,-5.9463,0,0,0,0,0,0,-5.8524,-5.855,-5.8782,-5.8684,-5.8715,-5.8805,-5.8862,-5.8877,-5.8916,-5.9009,-5.9025,-5.8955,-5.9099,-5.9121,-5.9214,-5.9242,-5.9207,-5.9215,-5.9457,-5.946,-5.9463,-5.9438,0,0,0,0,0,0,-5.8515,-5.8548,-5.8579,-5.8684,-5.872,-5.886,-5.8864,-5.8881,-5.8932,-5.8935,-5.9036,-5.9051,-5.91,-5.9201,-5.9222,-5.9253,-5.9222,-5.9455,-5.9459,-5.9462,-5.9436,-5.9439,-5.9442,0,0,0,0,0,-5.8504,-5.8563,-5.858,-5.8607,-5.8761,-5.8862,-5.8882,-5.8939,-5.8934,-5.8966,-5.9026,-5.9048,-5.9236,-5.9209,-5.9234,-5.9268,-5.9454,-5.9458,-5.9461,-5.9435,-5.9439,-5.9442,0,0,0,0,0,0,-5.8455,-5.8577,-5.8598,-5.8693,-5.8767,-5.8871,-5.8913,-5.894,-5.9015,-5.9015,-5.9081,-5.9103,-5.9191,-5.9239,-5.9207,-5.9352,-5.9346,-5.9355,-5.9317,-5.9321,-5.9324,-5.9309,-5.9229,0,0,0,0,0,-5.8456,-5.8529,-5.8632,-5.8706,-5.8742,-5.8821,-5.8867,-5.8906,-5.8984,-5.9014,-5.9081,-5.9154,-5.9231,-5.9279,-5.9354,-5.9445,-5.9468,-5.9481,-5.9483,-5.9485,-5.9491,-5.9544,-5.9551,-5.9476,-5.9476,-5.9476,0,0,-5.8457,-5.8533,-5.8575,-5.8698,-5.8759,-5.8833,-5.8847,-5.8923,-5.8978,-5.9025,-5.9117,-5.9169,-5.9256,-5.9348,-5.9392,-5.9391,-5.9518,-5.949,-5.9491,-5.9496,-5.9549,-5.9556,-5.9562,-5.9479,-5.9479,-5.9478,0,0,-5.8497,-5.8562,-5.8632,-5.8695,-5.879,-5.8843,-5.886,-5.8961,-5.8998,-5.9092,-5.913,-5.9196,-5.9325,-5.9386,-5.9434,-5.9502,-5.9525,-5.9524,-5.9537,-5.9588,-5.9594,-5.96,-5.9624,-5.9632,-5.9531,-5.9531,-5.9531,0,-5.8486,-5.86,-5.8664,-5.874,-5.8793,-5.8843,-5.8914,-5.8971,-5.9084,-5.9119,-5.9118,-5.9283,-5.9345,-5.9453,-5.947,-5.9507,-5.9528,-5.9512,-5.9588,-5.9595,-5.9601,-5.9625,-5.9634,-5.953,-5.953,-5.953,-5.953,0,-5.8582,-5.866,-5.8705,-5.8817,-5.8876,-5.8948,-5.9023,-5.9074,-5.9109,-5.9162,-5.9258,-5.9335,-5.9427,-5.9456,-5.9488,-5.957,-5.9566,-5.9576,-5.957,-5.9606,-5.963,-5.9639,-5.9529,-5.9529,-5.953,-5.953,0,0,-5.8592,-5.8742,-5.8757,-5.881,-5.892,-5.8981,-5.9057,-5.915,-5.9193,-5.9271,-5.9335,-5.9446,-5.9457,-5.9511,-5.9552,-5.9597,-5.9647,-5.9601,-5.9604,-5.9607,-5.9742,-5.9733,-5.9742,-5.9664,-5.9666,-5.9668,-5.9734,0,-5.8646,-5.8785,-5.8847,-5.8958,-5.9032,-5.9082,-5.9149,-5.9223,-5.9276,-5.9345,-5.9403,-5.948,-5.9488,-5.9522,-5.9569,-5.9631,-5.9675,-5.9627,-5.9724,-5.9727,-5.9699,-5.9755,-5.9745,-5.9804,-5.9744,-5.9746,-5.9747,0,-5.8726,-5.8807,-5.8926,-5.9031,-5.9064,-5.9122,-5.9214,-5.9281,-5.9366,-5.9402,-5.9465,-5.9505,-5.9586,-5.9577,-5.969,-5.9656,-5.97,-5.9737,-5.974,-5.975,-5.9737,-5.9765,-5.9824,-5.9832,-5.9762,-5.9761,-5.976,0,-5.8722,-5.8861,-5.8951,-5.8994,-5.9118,-5.9158,-5.9211,-5.9296,-5.9349,-5.9429,-5.9465,-5.9552,-5.9599,-5.9666,-5.9729,-5.9716,-5.9836,-5.9832,-5.9866,-5.9865,-5.9887,-5.9884,-5.9953,-5.9918,-5.9917,-5.9917,-5.9917,0,-5.8774,-5.8845,-5.8951,-5.9006,-5.9087,-5.9158,-5.9236,-5.9292,-5.9368,-5.9435,-5.9484,-5.9545,-5.9624,-5.9695,-5.9745,-5.9831,-5.9852,-5.9882,-5.9894,-5.9877,-5.9873,-5.9905,-5.9902,-5.992,-5.9919,-5.9919,-5.9918,0,-5.8782,-5.8856,-5.8957,-5.9068,-5.9098,-5.9152,-5.9247,-5.9302,-5.9359,-5.9442,-5.9466,-5.9554,-5.9641,-5.9711,-5.9823,-5.9857,-5.9947,-5.9961,-5.9918,-5.9924,-5.9955,-5.9951,-6.0045,-6.0061,-6.0016,-6.0016,-6.0016,0,-5.881,-5.8866,-5.8984,-5.9034,-5.9087,-5.9165,-5.9221,-5.9294,-5.9349,-5.9454,-5.9496,-5.9587,-5.9664,-5.98,-5.9873,-5.996,-5.9976,-6.0003,-5.9989,-5.9971,-5.9976,-5.9971,-5.9977,-6.0003,-6.0003,-6.0004,-6.0004,0,-5.8852,-5.8887,-5.8966,-5.9059,-5.9125,-5.9201,-5.9278,-5.9315,-5.9402,-5.9462,-5.9553,-5.9613,-5.973,-5.9819,-5.9914,-5.9968,-6.0,-6.0009,-6.0021,-6.0003,-5.9976,-5.9991,-5.9921,-6.0005,-6.0005,-6.0005,-6.0005,-6.0005,-5.8871,-5.8924,-5.9016,-5.9103,-5.917,-5.9242,-5.93,-5.9366,-5.9443,-5.9546,-5.9584,-5.9677,-5.9764,-5.9896,-5.9951,-6.0024,-6.0027,-6.0045,-6.0049,-6.0052,-6.005,-5.9966,-6.0042,-6.0042,-6.0042,-6.0042,-6.0042,0,-5.8915,-5.8978,-5.9058,-5.9166,-5.9235,-5.9263,-5.9351,-5.9406,-5.9488,-5.9568,-5.9643,-5.9748,-5.9836,-5.9918,-6.001,-6.0053,-6.0071,-6.0075,-6.0072,-6.0084,-6.0043,-6.0022,-6.006,-6.006,-6.006,-6.006,-6.006,-6.006,-5.8946,-5.9038,-5.9084,-5.921,-5.9272,-5.9366,-5.9413,-5.948,-5.9544,-5.966,-5.9735,-5.9789,-5.987,-5.9969,-6.0051,-6.0073,-6.0104,-6.0104,-6.0129,-6.0089,-6.0086,-6.0084,-6.0065,-6.0111,-6.0111,-6.0165,-6.0165,-6.0165]},{"header":{"parameterUnit":"m.s-1","parameterCategory":1,"la1":30.2991,"la2":30.254,"lo1":-89.0895,"lo2":-89.0444,"dy":0.0017,"dx":0.0017,"nx":28,"ny":28,"refTime":"2023-10-25T21:00:00:Z","depth":0,"parameterNumber":3,"parameterNumberName":"V-component_of_WINDS"},"data":[0,0,0,0,0,0,0,0,0,0,0,0,0,0,0,0,0,0,0,0,0,0,0,0,0,0,0,0,0,0,0,0,0,0,0,0,0,0,0,0,0,0,0,0,0,0,0,0,0,0,0,0,0,0,0,0,0,0,3.0506,3.0507,0,3.0633,3.0635,3.0636,3.0736,3.0737,3.0738,3.0739,3.0864,3.0866,3.0869,0,0,0,0,0,0,0,0,0,0,0,0,0,3.0345,3.0347,3.0505,3.0507,3.0509,3.0633,3.0635,3.0637,3.0736,3.0737,3.0738,3.074,3.0863,3.0866,3.0869,0,0,0,0,0,0,0,0,0,0,0,0,0,3.0437,3.0348,3.0505,3.0574,3.0581,3.0633,3.0635,3.0637,3.0736,3.0737,3.0739,3.074,3.0862,3.0866,3.0869,3.0862,0,0,3.088,3.0882,0,0,0,0,0,0,0,0,3.0432,3.0443,3.0562,3.0569,3.0577,3.0671,3.0624,3.0712,3.0735,3.0677,3.0739,3.0741,3.0798,3.0807,3.0827,3.0867,3.0873,3.088,3.0883,3.0884,3.0885,0,0,0,0,0,0,0,3.0426,3.0438,3.0556,3.0563,3.0573,3.0597,3.0612,3.0641,3.0727,3.0682,3.069,3.0704,3.0802,3.0824,3.0831,3.0875,3.088,3.0883,3.0886,3.0887,3.0919,3.0918,0,0,0,0,0,0,3.0409,3.0432,3.0552,3.056,3.0507,3.0598,3.0615,3.0639,3.0727,3.0742,3.0702,3.0708,3.0817,3.0827,3.0836,3.0836,3.0884,3.0887,3.089,3.092,3.0919,3.0917,0,0,0,0,0,0,3.0405,3.0419,3.0547,3.0498,3.0516,3.06,3.0626,3.0641,3.0662,3.0743,3.0758,3.0709,3.0818,3.0831,3.0856,3.0842,3.0889,3.0892,3.0922,3.092,3.0918,3.0834,0,0,0,0,0,0,3.04,3.0417,3.0415,3.0498,3.0519,3.0565,3.0625,3.0642,3.0669,3.0677,3.0753,3.0766,3.082,3.085,3.0859,3.0847,3.0895,3.0923,3.0921,3.0918,3.0838,3.0829,3.0821,0,0,0,0,0,3.0394,3.0384,3.0415,3.0429,3.0519,3.0564,3.0576,3.064,3.0667,3.0667,3.0719,3.0764,3.0841,3.0852,3.0863,3.0852,3.0925,3.0921,3.0919,3.0842,3.0831,3.0822,0,0,0,0,0,0,3.0295,3.0396,3.0431,3.0448,3.0497,3.0581,3.0582,3.0626,3.0667,3.0673,3.0749,3.0765,3.0783,3.0819,3.0829,3.0851,3.0889,3.0888,3.0827,3.0817,3.0809,3.08,3.0898,0,0,0,0,0,3.0276,3.0306,3.0392,3.0398,3.0422,3.0497,3.0519,3.0565,3.0618,3.0639,3.0693,3.0741,3.0777,3.0799,3.0836,3.0844,3.0863,3.0842,3.0833,3.0826,3.0825,3.0835,3.0828,3.0907,3.0907,3.0907,0,0,3.0235,3.0294,3.0308,3.038,3.0424,3.0453,3.0514,3.0541,3.0563,3.0642,3.0671,3.0712,3.0771,3.0789,3.0799,3.082,3.0807,3.0822,3.0816,3.0819,3.0831,3.0824,3.0817,3.0905,3.0906,3.0906,0,0,3.0177,3.0223,3.0236,3.028,3.0346,3.0397,3.04,3.0478,3.051,3.054,3.0601,3.0628,3.0686,3.0728,3.0756,3.0717,3.0761,3.0726,3.0683,3.0692,3.0686,3.0681,3.0669,3.0664,3.0724,3.0724,3.0724,0,3.0118,3.0165,3.0236,3.0262,3.0292,3.0368,3.0382,3.0419,3.0493,3.0512,3.0535,3.0614,3.0659,3.0689,3.068,3.0699,3.0706,3.0718,3.0681,3.0677,3.0673,3.0663,3.0658,3.072,3.072,3.0721,3.0721,0,3.0091,3.0123,3.0125,3.0198,3.0229,3.0247,3.0321,3.0343,3.0387,3.0435,3.0466,3.0523,3.0575,3.0585,3.0626,3.0621,3.0633,3.0667,3.0707,3.066,3.0652,3.0648,3.0713,3.0715,3.0716,3.0717,0,0,2.9973,3.0088,3.0087,3.0123,3.0203,3.0229,3.0252,3.0305,3.0324,3.0372,3.0394,3.0444,3.0478,3.051,3.0557,3.0564,3.0533,3.0598,3.0601,3.0586,3.0535,3.051,3.0504,3.0563,3.0562,3.0562,3.0531,0,2.9929,2.9977,3.0043,3.0068,3.01,3.0174,3.0194,3.0245,3.0291,3.0324,3.0374,3.041,3.045,3.0471,3.0481,3.0535,3.0524,3.0537,3.0584,3.0585,3.0569,3.05,3.0473,3.0441,3.0528,3.0527,3.0527,0,2.9884,2.9933,2.9962,3.0043,3.0059,3.0076,3.0132,3.0163,3.0222,3.0256,3.0293,3.0345,3.0373,3.0408,3.0448,3.0456,3.0479,3.0508,3.0508,3.0516,3.0554,3.0508,3.0432,3.0428,3.0522,3.0522,3.0523,0,2.9799,2.9871,2.9899,2.9927,3.0021,3.0032,3.0072,3.0133,3.0162,3.021,3.023,3.0279,3.0306,3.0343,3.0407,3.0426,3.0441,3.0481,3.047,3.0469,3.0471,3.047,3.04,3.0482,3.0482,3.0482,3.0482,0,2.9744,2.976,2.9863,2.988,2.9901,2.9976,2.9993,3.0039,3.0094,3.0122,3.0186,3.021,3.0292,3.0326,3.0375,3.0403,3.0413,3.0441,3.0455,3.0437,3.0434,3.0454,3.0459,3.0481,3.0481,3.0481,3.0481,0,2.9653,2.9722,2.9758,2.9846,2.9868,2.988,2.9954,2.9974,3.0025,3.0059,3.0071,3.0151,3.0194,3.0261,3.0323,3.0356,3.0376,3.0397,3.0357,3.0365,3.0352,3.0353,3.0294,3.0291,3.0372,3.0371,3.037,0,2.9614,2.9629,2.9719,2.9744,2.9782,2.982,2.9851,2.9926,2.9955,3.0026,3.0037,3.0087,3.013,3.0196,3.0258,3.0306,3.033,3.0306,3.0338,3.032,3.0333,3.0332,3.0335,3.0299,3.0298,3.0297,3.0296,0,2.954,2.9575,2.9618,2.9674,2.971,2.9757,2.9807,2.9823,2.9908,2.9938,2.9985,3.0019,3.0084,3.0133,3.019,3.023,3.0277,3.0285,3.0286,3.0269,3.0247,3.0261,3.0339,3.0287,3.0288,3.0288,3.0289,3.0289,2.9476,2.9494,2.9562,2.9608,2.9655,2.9701,2.9725,2.978,2.9821,2.9883,2.9923,2.9968,3.003,3.0113,3.0151,3.0187,3.0207,3.0207,3.0207,3.0207,3.0202,3.0239,3.0197,3.0197,3.0197,3.0198,3.0198,0,2.9408,2.9456,2.9498,2.9568,2.9605,2.9649,2.9707,2.9735,2.9774,2.9829,2.9872,2.9926,2.9974,3.0042,3.0095,3.011,3.0134,3.0122,3.0122,3.0131,3.0179,3.0175,3.0103,3.0103,3.0103,3.0103,3.0103,3.0103,2.9377,2.941,2.9453,2.9511,2.9558,2.9605,2.9635,2.9678,2.9723,2.9782,2.9823,2.9868,2.9928,2.9986,3.0032,3.0051,3.0068,3.005,3.0075,3.0119,3.0128,3.0136,3.0132,3.0053,3.0053,3.0026,3.0025,3.0025]}]]